Lid_Strength_Index
3 4 0 2 8 9 11 10 7 8 8 5 5 6 6 5 7 9 2 1 0 0 -1 -1 -1 -1 -1 -1 -1 -1 -1 -1 -1 -2 -2 -2 -2 -2 -2 -2 -2 -2 -2 -2 -2 -2 -1 -1 -1
4 3 1 4 11 13 12 8 9 7 5 5 5 5 6 7 4 3 3 1 0 -0 -0 -0 -0 -1 -1 -1 -1 -1 -1 -1 -1 -2 -2 -2 -2 -2 -2 -2 -2 -2 -2 -2 -2 -1 -1 -1 -1
5 1 5 8 10 13 12 9 8 6 5 5 6 4 5 6 4 3 1 0 -0 -0 -0 -0 -0 -1 -1 -1 -1 -1 -1 -1 -1 -1 -2 -2 -2 -2 -2 -2 -2 -2 -2 -2 -2 -1 -1 -1 -1
4 3 5 10 12 10 10 8 7 7 5 5 5 7 4 4 3 4 0 0 0 -0 -0 0 -0 -1 -1 -1 -1 -1 -1 -1 -1 -1 -1 -1 -2 -2 -2 -2 -2 -2 -2 -2 -2 -2 -1 -1 -1
3 4 11 12 12 10 8 7 7 7 6 6 5 7 6 4 4 3 0 0 1 0 -0 -0 -0 -1 -1 -1 -1 -1 -1 -1 -1 -1 -1 -2 -2 -2 -2 -2 -2 -2 -2 -2 -2 -2 -1 -1 -1
9 6 12 13 12 10 8 7 7 7 7 6 6 6 5 2 5 5 2 1 0 0 -0 -0 1 0 -0 -1 -1 -1 -1 -1 -1 -1 -1 -2 -2 -2 -2 -2 -2 -2 -2 -2 -2 -2 -1 -1 -1
11 10 13 12 12 11 9 8 8 8 8 8 7 8 5 3 4 4 4 1 0 0 0 -0 -0 -0 1 0 0 -0 -0 -1 -1 -1 -1 -1 -1 -1 -2 -1 -2 -2 -2 -2 -2 -2 -1 -1 -1
7 9 13 12 12 12 9 8 8 9 9 6 6 8 7 6 5 4 3 5 4 0 0 0 -0 -1 -1 -1 1 1 0 -0 -0 -0 -0 0 -0 -1 -1 -1 -2 -1 -2 -2 -2 -2 -1 -1 -1
7 12 13 12 12 11 9 10 8 7 9 8 7 7 6 5 4 5 4 5 7 7 1 -0 0 -0 -0 -0 0 2 1 1 1 1 1 1 -1 -1 -1 0 -1 -2 -2 -2 -2 -1 -1 -1 -0
10 12 12 9 9 10 9 9 9 10 10 10 9 7 6 5 5 6 6 6 8 8 7 6 0 0 0 -0 0 -0 -1 -1 -1 -1 -1 -1 -1 -1 1 2 1 -1 -1 -1 -1 -1 -1 -0 -1
10 12 10 9 8 7 8 9 8 10 12 10 10 9 8 8 8 7 5 5 6 7 7 7 4 0 0 0 -0 0 -0 -1 -1 -1 -1 -1 -1 -1 0 1 0 -1 1 -1 -1 -1 -1 -1 -1
12 10 10 9 8 9 10 8 10 9 10 8 8 8 8 8 8 8 6 6 6 7 7 6 5 2 0 0 0 -0 0 -0 -0 -1 -1 -1 -0 -0 1 1 1 -1 -1 -1 -1 -1 -1 -1 -1
11 11 10 9 9 9 9 10 10 10 8 7 7 8 8 8 8 7 7 6 5 7 7 7 4 6 1 1 0 -0 1 -0 -0 -1 -1 -1 -0 0 -0 1 1 -0 -1 -1 -0 -1 -1 -1 -1
10 11 10 10 10 10 11 11 10 10 8 8 8 8 7 7 7 7 7 6 6 8 8 6 5 4 6 1 0 0 1 0 -0 -1 -1 -1 -1 -0 -0 -0 1 0 -1 -1 -1 -0 -0 -0 -1
10 12 11 10 10 11 10 13 12 9 8 9 8 8 8 7 6 7 7 7 6 6 7 6 5 4 4 3 0 0 1 0 0 -0 -1 -1 -1 -0 -0 0 0 -0 -1 -0 -0 0 -0 -0 -0
12 13 15 12 11 11 12 15 11 8 9 9 8 8 7 7 6 5 6 6 6 5 8 6 6 4 2 1 0 1 1 1 1 0 0 -1 -1 -0 0 0 0 -1 -1 -0 -0 1 1 1 1
13 16 16 14 11 12 12 14 10 8 9 9 8 7 7 6 6 5 5 5 5 5 5 7 5 3 1 0 0 1 1 2 2 1 1 0 -0 0 0 0 -0 -1 -0 -0 0 0 1 2 2
17 17 15 15 13 12 13 13 11 9 9 9 8 7 6 6 6 5 5 4 5 5 5 7 5 1 1 1 1 1 1 2 1 2 1 1 1 0 0 0 -0 -0 0 0 0 1 0 1 1
15 15 16 13 11 13 13 13 11 9 9 8 8 7 6 6 4 5 5 4 4 5 5 3 3 1 1 1 2 2 3 2 2 2 1 1 1 1 1 0 -0 -0 0 1 0 1 1 2 1
14 15 15 13 12 13 13 13 10 10 9 9 8 7 7 6 5 5 5 4 5 5 5 3 1 1 1 1 1 1 2 2 2 2 2 2 1 1 1 1 1 0 0 1 1 1 3 2 3
15 16 15 15 14 13 13 13 12 10 9 9 9 9 8 7 7 6 5 5 5 5 5 1 1 1 1 1 1 1 1 2 3 3 2 2 2 1 1 0 -0 0 0 1 1 1 1 2 4
19 14 16 16 17 19 13 18 14 12 12 11 11 11 10 9 7 5 5 5 5 5 5 1 1 1 1 1 2 2 3 3 3 3 2 2 2 2 2 1 -0 0 0 1 1 0 1 1 3
17 15 16 16 17 16 15 16 16 14 15 15 13 12 11 9 8 7 5 4 5 5 5 1 1 1 1 1 1 2 2 2 2 3 3 3 2 2 3 2 2 1 1 0 0 1 2 2 3
14 17 16 14 15 18 15 15 19 17 17 16 14 14 12 9 8 6 4 4 5 4 4 1 2 2 1 1 2 2 2 2 3 3 3 3 3 3 2 2 2 2 3 3 3 3 4 4 4
15 18 21 19 19 20 14 15 17 16 16 15 17 15 7 8 7 5 4 4 4 4 2 2 3 6 6 7 8 8 9 10 10 5 3 5 7 7 8 6 8 8 8 8 8 9 10 11 11
17 18 22 25 22 20 14 20 16 15 15 15 16 9 6 6 5 4 3 3 3 3 3 5 7 9 9 9 10 11 11 12 12 12 12 12 12 12 11 12 12 12 12 12 12 13 13 14 14
18 20 17 21 18 19 17 17 14 16 17 18 18 10 8 6 6 5 4 5 6 6 6 8 9 10 10 11 11 12 13 13 14 14 13 13 13 13 13 13 14 13 14 14 14 15 15 15 16
17 16 21 19 23 22 18 20 22 21 21 20 20 15 9 8 7 7 6 8 8 8 10 10 11 12 12 12 13 13 14 14 14 14 15 15 15 15 15 15 15 15 16 16 16 16 17 17 17
19 20 19 19 18 21 21 20 19 21 21 21 19 15 10 10 10 8 9 9 10 10 12 13 13 14 13 13 14 14 14 15 15 16 17 17 16 17 17 17 17 17 17 17 17 18 18 19 19
17 20 19 20 22 19 20 20 18 19 20 19 19 16 12 11 10 11 11 12 13 13 14 15 15 15 15 14 15 15 15 16 17 17 17 17 17 17 17 17 17 18 18 18 19 19 19 20 20